OE6NPC-WX Weather Reports


Display with metric or nautical units.
time (UTC)temp
F
wind
direction
speed
MPH
gust
MPH
rain 1hr
in
rain 24hr
in
rain mn
in
humidity
%
barometer
mb
20260505065228 68 0.0 0.0 0.00 0.00 0.00 40 959.3
20260505064224 67 0.0 0.0 0.00 0.00 0.00 41 959.2
20260505063220 65 0.0 0.0 0.00 0.00 0.00 43 959.2
20260505062215 63 0.0 0.0 0.00 0.00 0.00 45 959.2
20260505061211 62 0.0 0.0 0.00 0.00 0.00 48 959.2
20260505060207 61 0.0 0.0 0.00 0.00 0.00 50 959.3
20260505055203 61 0.0 0.0 0.00 0.00 0.00 50 959.2
20260505054159 60 0.0 0.0 0.00 0.00 0.00 52 959.2
20260505053155 59 0.0 0.0 0.00 0.00 0.00 53 959.2
20260505052151 58 0.0 0.0 0.00 0.00 0.00 54 959.1
20260505051146 58 0.0 0.0 0.00 0.00 0.00 56 959.1
20260505050142 57 0.0 0.0 0.00 0.00 0.00 53 959.0
20260505041121 52 0.0 0.0 0.00 0.00 0.00 63 958.8
20260505040117 52 0.0 0.0 0.00 0.00 0.00 64 958.9
20260505035113 52 0.0 0.0 0.00 0.00 0.00 63 958.9
20260505034109 52 0.0 0.0 0.00 0.00 0.00 63 958.9
20260505033105 52 0.0 0.0 0.00 0.00 0.00 64 958.9
20260505031056 51 0.0 0.0 0.00 0.00 0.00 64 959.2
20260505030052 51 0.0 0.0 0.00 0.00 0.00 64 959.3
20260505025048 51 0.0 0.0 0.00 0.00 0.00 65 959.3
20260505024044 51 0.0 0.0 0.00 0.00 0.00 64 959.3
20260505023040 52 0.0 0.0 0.00 0.00 0.00 64 959.4
20260505022035 52 0.0 0.0 0.00 0.00 0.00 64 959.5
20260505021031 52 0.0 0.0 0.00 0.00 0.00 65 959.6
20260505020027 52 0.0 0.0 0.00 0.00 0.00 64 959.7
20260505015023 52 0.0 0.0 0.00 0.00 0.00 64 959.6
20260505014018 52 0.0 0.0 0.00 0.00 0.00 64 959.7
20260505013015 52 0.0 0.0 0.00 0.00 0.00 64 959.7
20260505012010 52 0.0 0.0 0.00 0.00 0.00 63 959.8
20260505011006 53 0.0 0.0 0.00 0.00 0.00 64 959.7
20260505010001 53 0.0 0.0 0.00 0.00 0.00 63 959.8
20260505004957 53 0.0 0.0 0.00 0.00 0.00 63 960.0
20260505003952 53 0.0 0.0 0.00 0.00 0.00 63 960.0
20260505002947 53 0.0 0.0 0.00 0.00 0.00 63 960.1
20260505001943 53 0.0 0.0 0.00 0.00 0.00 61 960.2
20260505000938 54 0.0 0.0 0.00 0.00 0.00 62 960.4
20260504235934 54 0.0 0.0 0.00 0.00 0.00 61 960.4
20260504234929 54 0.0 0.0 0.00 0.00 0.00 61 960.5
20260504233925 55 0.0 0.0 0.00 0.00 0.00 60 960.6
20260504232920 55 0.0 0.0 0.00 0.00 0.00 59 960.6
20260504231915 55 0.0 0.0 0.00 0.00 0.00 59 960.7
20260504230911 56 0.0 0.0 0.00 0.00 0.00 58 960.6
20260504225906 56 0.0 0.0 0.00 0.00 0.00 58 960.7
20260504224901 56 0.0 0.0 0.00 0.00 0.00 57 960.7
20260504223857 57 0.0 0.0 0.00 0.00 0.00 57 960.8
20260504222852 57 0.0 0.0 0.00 0.00 0.00 55 960.9
20260504221847 58 0.0 0.0 0.00 0.00 0.00 55 960.9
20260504220843 58 0.0 0.0 0.00 0.00 0.00 55 961.0
20260504215838 58 0.0 0.0 0.00 0.00 0.00 54 961.0
20260504214833 58 0.0 0.0 0.00 0.00 0.00 54 961.1
20260504213829 59 0.0 0.0 0.00 0.00 0.00 53 961.2
20260504212824 59 0.0 0.0 0.00 0.00 0.00 53 961.2
20260504211820 59 0.0 0.0 0.00 0.00 0.00 52 961.2
20260504210815 59 0.0 0.0 0.00 0.00 0.00 52 961.3
20260504205810 60 0.0 0.0 0.00 0.00 0.00 52 961.3
20260504204806 60 0.0 0.0 0.00 0.00 0.00 51 961.2
20260504203802 60 0.0 0.0 0.00 0.00 0.00 51 961.3
20260504202758 61 0.0 0.0 0.00 0.00 0.00 50 961.2
20260504201754 61 0.0 0.0 0.00 0.00 0.00 50 961.3
20260504200749 61 0.0 0.0 0.00 0.00 0.00 49 961.3
20260504195745 62 0.0 0.0 0.00 0.00 0.00 48 961.3
20260504194741 62 0.0 0.0 0.00 0.00 0.00 47 961.3
20260504193737 62 0.0 0.0 0.00 0.00 0.00 44 961.4
20260504192733 63 0.0 0.0 0.00 0.00 0.00 44 961.4
20260504191729 63 0.0 0.0 0.00 0.00 0.00 43 961.3
20260504190725 64 0.0 0.0 0.00 0.00 0.00 41 961.2
20260504185720 64 0.0 0.0 0.00 0.00 0.00 41 961.2
20260504184716 65 0.0 0.0 0.00 0.00 0.00 40 961.1
20260504183712 65 0.0 0.0 0.00 0.00 0.00 41 961.0
20260504182708 66 0.0 0.0 0.00 0.00 0.00 41 960.9
20260504181704 66 0.0 0.0 0.00 0.00 0.00 40 960.9
20260504180700 67 0.0 0.0 0.00 0.00 0.00 39 960.9
20260504175655 67 0.0 0.0 0.00 0.00 0.00 39 960.9
20260504174651 68 0.0 0.0 0.00 0.00 0.00 39 960.8
20260504173647 68 0.0 0.0 0.00 0.00 0.00 38 960.8
20260504172643 68 0.0 0.0 0.00 0.00 0.00 38 960.8
20260504171639 69 0.0 0.0 0.00 0.00 0.00 38 960.8
20260504170635 70 0.0 0.0 0.00 0.00 0.00 37 960.8
20260504150545 73 0.0 0.0 0.00 0.00 0.00 31 961.3
20260504140519 73 0.0 0.0 0.00 0.00 0.00 31 961.9
20260504130454 73 0.0 0.0 0.00 0.00 0.00 31 962.6
20260504110400 73 0.0 0.0 0.00 0.00 0.00 33 963.7
20260504100333 73 0.0 0.0 0.00 0.00 0.00 33 964.3
20260504081242 74 0.0 0.0 0.00 0.00 0.00 35 965.0
20260504080238 74 0.0 0.0 0.00 0.00 0.00 36 964.9